[[{"header":{"parameterUnit":"m.s-1","parameterCategory":1,"la1":30.2992,"la2":30.254,"lo1":-89.0895,"lo2":-89.0443,"dy":0.0025,"dx":0.0025,"nx":19,"ny":19,"refTime":"2026-04-29T21:00:00:Z","depth":0,"parameterNumber":2,"parameterNumberName":"U-component_of_WINDS"},"data":[0,0,0,-0.4079,-0.4076,-0.392,-0.392,-0.3743,-0.3742,0,0,0,0,0,0,0,0,0,0,0,-0.4137,-0.4137,-0.4079,-0.4075,-0.3921,-0.392,-0.3743,-0.3742,0,0,0,0,0,0,0,0,0,0,0,-0.4138,-0.4137,-0.4136,-0.4075,-0.3921,-0.392,-0.3743,-0.3853,0,0,0,0,0,0,0,0,0,0,-0.4,-0.4066,-0.4137,-0.4136,-0.4074,-0.3921,-0.392,-0.3858,-0.3846,-0.3822,0,-0.3805,0,-0.377,-0.3731,-0.373,0,0,0,-0.4066,-0.4076,-0.4023,-0.4136,-0.4073,-0.3921,-0.3988,-0.3851,-0.3838,-0.3807,-0.3802,-0.3795,-0.3768,-0.373,-0.3729,-0.3626,-0.3626,0,0,-0.4074,-0.4116,-0.4032,-0.4015,-0.404,-0.3993,-0.3983,-0.3843,-0.384,-0.3801,-0.379,-0.3765,-0.3729,-0.3728,-0.3626,-0.3626,0,0,0,-0.4105,-0.4123,-0.4072,-0.4023,-0.3994,-0.3989,-0.3977,-0.3846,-0.3826,-0.3788,-0.3763,-0.3728,-0.3726,-0.3626,-0.3626,-0.3665,0,0,0,-0.411,-0.4141,-0.4077,-0.4101,-0.3997,-0.3918,-0.3984,-0.3836,-0.3819,-0.3763,-0.3728,-0.3725,-0.3626,-0.3626,-0.3664,-0.3677,0,0,0,-0.4143,-0.4144,-0.4126,-0.4103,-0.4038,-0.3919,-0.3891,-0.3831,-0.3804,-0.373,-0.3724,-0.3626,-0.3626,-0.3663,-0.3675,-0.3662,0,0,0,-0.419,-0.4163,-0.4128,-0.4087,-0.404,-0.3945,-0.3891,-0.3818,-0.376,-0.3727,-0.3626,-0.3626,-0.3663,-0.3674,-0.3661,-0.3659,-0.3662,0,0,-0.4179,-0.4163,-0.4136,-0.41,-0.4022,-0.3965,-0.3893,-0.38,-0.3754,-0.3671,-0.3668,-0.3664,-0.3675,-0.3662,-0.3664,-0.3667,0,0,0,-0.4147,-0.4128,-0.4098,-0.4045,-0.3974,-0.3914,-0.3828,-0.3794,-0.3722,-0.372,-0.3655,-0.366,-0.3651,-0.3648,-0.365,-0.3639,-0.3626,-0.3626,-0.3626,-0.4191,-0.4135,-0.4087,-0.4013,-0.3962,-0.3874,-0.3829,-0.3768,-0.3725,-0.3711,-0.3686,-0.3694,-0.3692,-0.3693,-0.3683,-0.368,-0.368,-0.368,-0.368,-0.4169,-0.4134,-0.408,-0.4013,-0.3955,-0.3899,-0.3814,-0.3786,-0.3726,-0.3708,-0.3697,-0.3682,-0.3698,-0.3686,-0.3683,-0.3682,-0.3682,-0.3682,-0.3682,-0.4191,-0.4165,-0.4124,-0.4043,-0.3987,-0.3913,-0.3858,-0.3807,-0.3758,-0.3747,-0.3715,-0.3715,-0.3707,-0.3736,-0.3736,-0.3736,-0.3736,-0.3736,-0.3736,-0.4231,-0.4183,-0.4143,-0.4067,-0.4027,-0.3968,-0.3881,-0.384,-0.3782,-0.3749,-0.3749,-0.3709,-0.371,-0.3711,-0.3736,-0.3736,-0.3736,-0.3736,-0.3736,-0.4229,-0.4221,-0.4159,-0.4119,-0.4026,-0.3975,-0.391,-0.3833,-0.3792,-0.3767,-0.3729,-0.3739,-0.3718,-0.3716,-0.3717,-0.3741,-0.3741,-0.3741,-0.3741,-0.4248,-0.4233,-0.4158,-0.4098,-0.4033,-0.3969,-0.3902,-0.3836,-0.3765,-0.3737,-0.3726,-0.3723,-0.3723,-0.3703,-0.3701,-0.3701,-0.372,-0.372,-0.372,-0.4244,-0.4221,-0.4173,-0.4104,-0.4027,-0.3964,-0.3899,-0.3833,-0.3752,-0.3718,-0.3714,-0.3715,-0.3709,-0.371,-0.3676,-0.3674,-0.3672,0,0]},{"header":{"parameterUnit":"m.s-1","parameterCategory":1,"la1":30.2992,"la2":30.254,"lo1":-89.0895,"lo2":-89.0443,"dy":0.0025,"dx":0.0025,"nx":19,"ny":19,"refTime":"2026-04-29T21:00:00:Z","depth":0,"parameterNumber":3,"parameterNumberName":"V-component_of_WINDS"},"data":[0,0,0,5.9002,5.9002,5.8993,5.8992,5.8984,5.8983,0,0,0,0,0,0,0,0,0,0,0,5.9008,5.9008,5.9002,5.9002,5.8993,5.8992,5.8984,5.8983,0,0,0,0,0,0,0,0,0,0,0,5.9008,5.9008,5.9008,5.9002,5.8993,5.8992,5.8984,5.8989,0,0,0,0,0,0,0,0,0,0,5.8998,5.9007,5.9008,5.9008,5.9002,5.8993,5.8992,5.899,5.8989,5.899,0,5.8992,0,5.8988,5.8983,5.8983,0,0,0,5.9,5.9007,5.9002,5.9008,5.9002,5.8993,5.8996,5.8989,5.8989,5.8989,5.8992,5.8991,5.8987,5.8983,5.8983,5.8997,5.8997,0,0,5.9,5.9008,5.9002,5.9002,5.9004,5.8996,5.8996,5.8989,5.8992,5.8992,5.8991,5.8987,5.8983,5.8983,5.8997,5.8997,0,0,0,5.9003,5.9008,5.9003,5.9002,5.9,5.8996,5.8996,5.8992,5.899,5.8991,5.8987,5.8983,5.8983,5.8996,5.8997,5.9013,0,0,0,5.9004,5.901,5.9004,5.9008,5.9001,5.8996,5.8999,5.899,5.8989,5.8987,5.8983,5.8983,5.8996,5.8997,5.9013,5.902,0,0,0,5.9008,5.9011,5.901,5.9009,5.9005,5.8996,5.8994,5.899,5.8987,5.8983,5.8983,5.8996,5.8996,5.9012,5.9019,5.9026,0,0,0,5.9014,5.9025,5.9011,5.9022,5.9005,5.9007,5.8993,5.8994,5.8993,5.8983,5.8996,5.8997,5.9012,5.9018,5.9025,5.9034,5.9038,0,0,5.9033,5.9028,5.9034,5.902,5.9027,5.9008,5.9016,5.9007,5.8999,5.8998,5.8998,5.9013,5.9019,5.9026,5.9058,5.9062,0,0,0,5.9042,5.9046,5.9046,5.9046,5.9039,5.9034,5.9023,5.9019,5.9017,5.9001,5.9017,5.902,5.9024,5.9028,5.9031,5.9033,5.8999,5.8999,5.8999,5.908,5.9069,5.9078,5.9066,5.9065,5.9053,5.9051,5.9044,5.9033,5.9037,5.9037,5.9058,5.9063,5.9065,5.9068,5.904,5.904,5.904,5.904,5.9106,5.911,5.9095,5.9099,5.9087,5.9089,5.9077,5.907,5.9069,5.9058,5.906,5.9049,5.9069,5.9071,5.9042,5.9041,5.9041,5.9041,5.9041,5.9129,5.913,5.9125,5.9122,5.9121,5.9108,5.9108,5.9097,5.9087,5.909,5.9088,5.9088,5.9086,5.909,5.909,5.909,5.909,5.909,5.909,5.9156,5.915,5.9153,5.9146,5.9144,5.9139,5.9126,5.9123,5.9117,5.9108,5.9108,5.9097,5.9073,5.9067,5.9091,5.9091,5.9091,5.909,5.909,5.9187,5.9178,5.9182,5.9179,5.917,5.9169,5.9155,5.9149,5.9145,5.9145,5.9133,5.9117,5.9111,5.9109,5.9104,5.9135,5.9135,5.9135,5.9135,5.9208,5.9204,5.9204,5.9201,5.9196,5.9183,5.9186,5.9176,5.9163,5.9159,5.9153,5.9145,5.9143,5.9139,5.9136,5.9131,5.9169,5.9169,5.9169,5.9226,5.9221,5.9227,5.9215,5.9206,5.9199,5.9201,5.9197,5.918,5.917,5.9156,5.9155,5.9142,5.9139,5.9129,5.9125,5.9116,0,0]}]]